Flag for Germany Weather past 2 weeks in Augsburg, Bavaria, Germany

Now
70 °F

Passing clouds.


Feels Like: 70 °F
Forecast: 56 / 64 °F
Wind: 10 mph from West

Location: Augsburg Airport

Current Time: Sep 20, 2014 at 4:45:40 PM

Latest Report: Sep 20, 2014 at 3:20 PM


Visibility: N/A

Pressure: 30.01 "Hg

Humidity: 64%

Dew point: 57 °F

Location of AugsburgLocation

Historic Weather in Augsburg — Graph

°F

Augsburg temperature yesterday

Maximum temperature yesterday: 77 °F (at 2:20 PM)
Minimum temperature yesterday: 52 °F (at 6:50 AM)
Average temperature yesterday: 68 °F

Past Weeks' High & Low Weather Summary

 TemperatureHumidityPressure
High79 °F (Sep 7, 3:50 PM)100% (Sep 5, 7:20 PM)30.15 "Hg (Sep 5, 7:20 PM)
Low46 °F (Sep 18, 7:20 AM)42% (Sep 7, 3:20 PM)29.92 "Hg (Sep 6, 3:20 PM)
Average62 °F83%30.01 "Hg
* Reported Sep 5 3:20 PM — Sep 20 3:20 PM, Augsburg, Weather by CustomWeather, © 2014

Note: Actual official high and low records may vary slightly from our data, if they occured in-between our weather recording intervals... More about our weather records

Advertising

Augsburg weather history for previous 24 hours

 ConditionsComfort  
Time TempWeatherWind HumidityBarometerVisibility
3:20 PM
Sep 20
70 °FPassing clouds.10 mph64%30.01 "HgN/A
2:50 PM70 °FPassing clouds.10 mph69%30.01 "HgN/A
2:20 PM68 °FPassing clouds.8 mph78%30.01 "HgN/A
1:50 PM68 °FScattered clouds.8 mph78%30.04 "HgN/A
1:20 PM68 °FScattered clouds.5 mph73%30.04 "HgN/A
12:20 PM70 °FScattered clouds.5 mph69%30.04 "HgN/A
11:50 AM66 °FScattered clouds.5 mph83%30.04 "HgN/A
11:20 AM64 °FPartly sunny.5 mph94%30.04 "HgN/A
10:50 AM64 °FPartly sunny.2 mph94%30.04 "HgN/A
10:20 AM63 °FDrizzle. More clouds than sun.6 mph100%30.04 "HgN/A
9:50 AM63 °FRain. More clouds than sun.6 mph94%30.04 "HgN/A
9:20 AM63 °FPassing clouds.5 mph100%30.01 "HgN/A
8:50 AM61 °FSunny.3 mph100%30.01 "Hg10 mi
8:20 AM61 °FSunny.5 mph100%30.01 "Hg10 mi
7:50 AM59 °FClear.2 mph100%30.01 "Hg10 mi
7:20 AM59 °FClear.3 mph100%30.01 "Hg10 mi
6:50 AM59 °FLight rain. Passing clouds.2 mph100%30.01 "HgN/A
8:50 PM
Sep 19
61 °FThundershowers. Passing clouds.3 mph100%29.98 "HgN/A
8:20 PM64 °FThundershowers. Passing clouds.1 mph73%29.98 "HgN/A
7:50 PM66 °FSunny.5 mph68%29.98 "Hg10 mi
7:20 PM70 °FSunny.7 mph64%29.98 "Hg10 mi
6:50 PM70 °FSunny.5 mph78%29.98 "Hg10 mi
6:20 PM72 °FSunny.2 mph69%29.98 "Hg10 mi
5:50 PM73 °FSunny.2 mph65%29.98 "Hg10 mi
5:20 PM73 °FSunny.2 mph61%29.95 "Hg10 mi
4:50 PM75 °FSunny.3 mph54%29.95 "Hg10 mi
4:20 PM77 °FPassing clouds.3 mph51%29.95 "HgN/A
Weather by CustomWeather, © 2014

See weather overviewHow to use our weather pages